This is the latest recevied weather packets stored in our database for station/object KY0TEQ-13. If no packets are shown the sender has not sent any weather packets the latest 10 day(s).
| Time | Temp. | Humidity | Pressure | Rain* | Wind** | Luminosity | Snow |
|---|---|---|---|---|---|---|---|
| 1788196587 | 17.78° C | 62% | 1312.4 hPa | 0 mm | - | 174 W/m² | - |
| 1788196285 | 17.78° C | 62% | 1312.7 hPa | 0 mm | - | 188 W/m² | - |
| 1788195981 | 17.78° C | 61% | 1312.4 hPa | 0 mm | - | 220 W/m² | - |
| 1788195678 | 18.33° C | 61% | 1312.5 hPa | 0 mm | - | 262 W/m² | - |
| 1788195373 | 18.33° C | 58% | 1312.5 hPa | 0 mm | - | 280 W/m² | - |
| 1788195070 | 18.33° C | 59% | 1312.5 hPa | 0 mm | - | 299 W/m² | - |
| 1788194765 | 18.33° C | 59% | 1312.7 hPa | 0 mm | - | 240 W/m² | - |
| 1788194460 | 17.78° C | 62% | 1312.5 hPa | 0 mm | - | 220 W/m² | - |
| 1788194155 | 17.78° C | 62% | 1312.3 hPa | 0 mm | - | 251 W/m² | - |
| 1788193851 | 17.78° C | 62% | 1312.1 hPa | 0 mm | - | 238 W/m² | - |
| 1788193550 | 17.78° C | 63% | 1312.3 hPa | 0 mm | - | 246 W/m² | - |
| 1788193248 | 17.22° C | 64% | 1312.2 hPa | 0 mm | - | 259 W/m² | - |
| 1788192944 | 17.22° C | 64% | 1312.2 hPa | 0 mm | - | 240 W/m² | - |
| 1788192640 | 16.67° C | 66% | 1312.2 hPa | 0 mm | - | 169 W/m² | - |
| 1788192339 | 16.67° C | 68% | 1312.2 hPa | 0 mm | - | 175 W/m² | - |
| 1788192035 | 16.11° C | 69% | 1312.2 hPa | 0 mm | - | 175 W/m² | - |
| 1788191730 | 16.11° C | 70% | 1312.2 hPa | 0 mm | - | 146 W/m² | - |
| 1788191425 | 16.11° C | 71% | 1312.1 hPa | 0 mm | - | 228 W/m² | - |
| 1788191137 | 16.11° C | 72% | 1312.2 hPa | 0 mm | - | 238 W/m² | - |
| 1788190821 | 15.56° C | 73% | 1312.1 hPa | 0 mm | - | 330 W/m² | - |
| 1788190520 | 15.56° C | 73% | 1312.3 hPa | 0 mm | - | 165 W/m² | - |
| 1788190218 | 15.56° C | 74% | 1312.3 hPa | 0 mm | - | 229 W/m² | - |
| 1788189913 | 15.56° C | 75% | 1312.1 hPa | 0 mm | - | 237 W/m² | - |
| 1788189608 | 15° C | 74% | 1311.9 hPa | 0 mm | - | 153 W/m² | - |
| 1788189308 | 15° C | 75% | 1311.9 hPa | 0 mm | - | 137 W/m² | - |
* Rain latest hour (hover to see other rain measurements)
** Current wind speed in m/s (hover to see current wind gust speed)